This demonstration page uses our WeatherBlox Daily Observations layout. Learn more.

Left ArrowRight Arrow

39.12711, -84.51439

Hourly Observations for May 18, 2018

Temp ( °F °C ) Dew Point ( °F °C ) Humidity (%) Winds ( mph kmh ) Pressure ( in mb ) Visibility ( mi km ) Precip ( " mm )
12:53 am 00:53 Clear with Mist and Fog 66 18.9 66 18.9 100 100 Calm 29.94 1014 3 4 0.00 0.00
1:01 am 01:01 Clear with Mist and Fog 66 18.9 66 18.9 100 100 Calm 29.94 1014 1 1 0.00 0.00
1:07 am 01:07 Mostly Cloudy with Fog 64 17.8 64 17.8 100 100 Calm 29.94 1014 0 0 0.00 0.00
1:23 am 01:23 Mostly Cloudy with Mist and Fog 65 18.3 65 18.3 100 100 Calm 29.94 1014 1 1 0.00 0.00
1:25 am 01:25 Mostly Clear with Mist and Fog 65 18.3 65 18.3 100 100 Calm 29.94 1014 1 2 0.00 0.00
1:32 am 01:32 Mostly Cloudy with Fog 64 17.8 64 17.8 100 100 Calm 29.94 1014 1 1 0.00 0.00
1:53 am 01:53 Mostly Cloudy with Fog 64 17.8 64 17.8 100 100 Calm 29.94 1014 0 0 0.00 0.00
1:57 am 01:57 Mostly Clear with Fog 64 17.8 64 17.8 100 100 Calm 29.94 1014 1 1 0.00 0.00
2:10 am 02:10 Mostly Cloudy with Mist and Fog 64 17.8 64 17.8 100 100 Calm 29.94 1014 2 3 0.00 0.00
2:17 am 02:17 Mostly Cloudy with Mist and Fog 64 17.8 64 17.8 100 100 Calm 29.94 1014 5 8 0.00 0.00
2:53 am 02:53 Cloudy with Mist and Fog 65 18.3 65 18.3 100 100 Calm 29.91 1013 5 8 0.00 0.00
3:53 am 03:53 Cloudy 67 19.4 64 17.8 91 91 NNE 8 13 29.91 1013 10 16 0.00 0.00
4:20 am 04:20 Cloudy 66 18.9 63 17.2 90 90 NNE 7 11 29.91 1013 10 16 0.00 0.00
4:31 am 04:31 Cloudy 66 18.9 63 17.2 90 90 NNE 6 9 29.91 1013 10 16 0.00 0.00
4:53 am 04:53 Partly Cloudy 64 17.8 62 16.7 93 93 NE 5 7 29.91 1013 10 16 0.00 0.00
5:53 am 05:53 Cloudy 66 18.9 64 17.8 93 93 NE 3 6 29.93 1013 10 16 0.00 0.00
6:13 am 06:13 Cloudy 66 18.9 64 17.8 93 93 ENE 3 6 29.91 1013 10 16 0.00 0.00
6:53 am 06:53 Cloudy 67 19.4 64 17.8 91 91 Calm 29.93 1014 10 16 0.00 0.00
7:53 am 07:53 Cloudy 69 20.6 65 18.3 87 87 NNE 5 7 29.94 1014 10 16 0.00 0.00
8:53 am 08:53 Cloudy 70 21.1 66 18.9 87 87 NE 6 9 29.96 1014 10 16 0.00 0.00
9:17 am 09:17 Cloudy 70 21.1 66 18.9 87 87 NE 8 13 29.94 1014 10 16 0.00 0.00
9:53 am 09:53 Cloudy 71 21.7 66 18.9 84 84 E 8 13 29.96 1015 10 16 0.00 0.00
10:53 am 10:53 Cloudy 72 22.2 66 18.9 82 82 E 7 11 29.96 1014 10 16 0.00 0.00
11:53 am 11:53 Cloudy 72 22.2 67 19.4 84 84 ENE 10 17 29.95 1014 10 16 0.00 0.03
12:53 pm 12:53 Cloudy 73 22.8 67 19.4 81 81 E 7 11 29.94 1014 10 16 0.00 0.00
1:53 pm 13:53 Cloudy 74 23.3 68 20 82 82 E 10 17 29.94 1014 10 16 0.00 0.00
2:53 pm 14:53 Cloudy 76 24.4 69 20.6 79 79 NE 8 13 29.91 1013 10 16 0.00 0.00
3:53 pm 15:53 Cloudy 75 23.9 68 20 79 79 ENE 12 19 29.89 1012 10 16 0.00 0.00
4:53 pm 16:53 Cloudy 75 23.9 68 20 79 79 ENE 12 19 29.88 1012 10 16 0.00 0.00
5:53 pm 17:53 Cloudy with Light Rain 73 22.8 68 20 84 84 NE 9 15 29.88 1012 10 16 0.00 0.03
6:39 pm 18:39 Mostly Cloudy with Thunderstorms 73 22.8 68 20 84 84 ENE 6 9 29.91 1013 10 16 0.00 0.03
6:53 pm 18:53 Mostly Cloudy with Light Rain 73 22.8 68 20 84 84 ENE 5 7 29.88 1012 10 16 0.00 0.03
7:27 pm 19:27 Cloudy with Thunderstorms 72 22.2 69 20.6 91 91 ENE 7 11 29.88 1012 10 16 0.01 0.25
7:53 pm 19:53 Cloudy with Thunderstorms 71 21.7 69 20.6 94 94 ENE 8 13 29.87 1012 10 16 0.01 0.25
8:22 pm 20:22 Mostly Cloudy with Light Rain 71 21.7 70 21.1 96 96 VRB 3 6 29.91 1013 7 11 0.01 0.25
8:53 pm 20:53 Cloudy with Light Rain 71 21.7 70 21.1 96 96 N 3 6 29.89 1012 10 16 0.01 0.25
9:53 pm 21:53 Cloudy with Light Rain 70 21.1 70 21.1 100 100 Calm 29.89 1012 10 16 0.01 0.25
10:53 pm 22:53 Cloudy with Heavy Rain 70 21.1 70 21.1 100 100 NE 6 9 29.89 1012 3 5 0.06 1.52
11:28 pm 23:28 Cloudy with Light Rain 70 21.1 70 21.1 100 100 NE 3 6 29.91 1013 9 14 0.01 0.25
11:36 pm 23:36 Cloudy with Light Rain 70 21.1 70 21.1 100 100 NE 5 7 29.88 1012 9 14 0.02 0.51
11:53 pm 23:53 Cloudy 70 21.1 70 21.1 100 100 ENE 3 6 29.88 1012 10 16 0.02 0.51

Powered by AerisWeather